Home   Weather   Bangor   Past weeks

Flag for United Kingdom Past Weather in Bangor, Wales, United Kingdom — Yesterday and Last 2 Weeks

Now
41 °F

Quite cool.


Feels Like: 35 °F
Forecast: 43 / 52 °F
Wind: 10 mph from Southwest

Location: Capel Curig

Current Time: Apr 27, 2017 at 8:18:31 am

Latest Report: Apr 27, 2017 at 7:00 am


Visibility: 22 mi

Pressure: 30.16 "Hg

Humidity: 83%

Dew Point: 36 °F

Location of BangorLocation

Past Weather in Bangor — Graph

°F

Bangor Temperature Yesterday

Maximum temperature yesterday: 43 °F (at 2:00 pm)
Minimum temperature yesterday: 35 °F (at 11:00 pm)
Average temperature yesterday: 40 °F

High & Low Weather Summary for the Past Weeks

 TemperatureHumidityPressure
High55 °F (Apr 23, 2:00 pm)99% (Apr 20, 5:00 am)30.61 "Hg (Apr 20, 5:00 am)
Low32 °F (Apr 18, 3:00 am)41% (Apr 18, 4:00 pm)29.93 "Hg (Apr 14, 5:00 pm)
Average45 °F76%30.26 "Hg
* Reported Apr 12 6:00 am — Apr 27 6:00 am, Bangor, Weather by CustomWeather, © 2017

Note: Actual official high and low records may vary slightly from our data, if they occured in-between our weather recording intervals... More about our weather records

Advertising

Bangor Weather History for the Previous 24 Hours

Scroll right to see more
 ConditionsComfort  
Time TempWeatherWind HumidityBarometerVisibility
6:00 am
Thu, Apr 27
41 °FQuite cool.9 mph84%30.16 "Hg25 mi
5:00 am39 °FChilly.7 mph86%30.17 "Hg16 mi
4:00 am39 °FChilly.8 mph84%30.18 "Hg22 mi
3:00 am38 °FChilly.3 mph87%30.19 "Hg22 mi
2:00 am38 °FChilly.2 mph82%30.20 "Hg31 mi
1:00 am35 °FChilly.1 mph86%30.20 "Hg19 mi
12:00 am36 °FChilly.1 mph82%30.21 "Hg31 mi
11:00 pm
Wed, Apr 26
35 °FChilly.2 mph81%30.21 "Hg31 mi
10:00 pm36 °FChilly.1 mph75%30.21 "Hg16 mi
9:00 pm39 °FChilly.3 mph68%30.20 "Hg31 mi
8:00 pm39 °FChilly.3 mph62%30.20 "Hg22 mi
7:00 pm42 °FQuite cool.5 mph52%30.19 "Hg25 mi
6:00 pm42 °FQuite cool.8 mph50%30.19 "Hg14 mi
5:00 pm42 °FQuite cool.8 mph46%30.19 "Hg19 mi
4:00 pm42 °FQuite cool.12 mph52%30.20 "Hg28 mi
3:00 pm43 °FQuite cool.12 mph52%30.19 "Hg19 mi
2:00 pm43 °FQuite cool.6 mph56%30.19 "Hg15 mi
1:00 pm42 °FQuite cool.12 mph53%30.19 "Hg28 mi
12:00 pm43 °FQuite cool.10 mph56%30.18 "Hg31 mi
11:00 am40 °FQuite cool.10 mph56%30.18 "Hg13 mi
10:00 am41 °FQuite cool.9 mph62%30.18 "Hg31 mi
9:00 am41 °FQuite cool.9 mph67%30.18 "Hg17 mi
8:00 am40 °FChilly.15 mph70%30.17 "Hg19 mi
Weather by CustomWeather, © 2017

See weather overviewHow to use our weather pages